Regional Weather Roundup
Issued by NWS

Home | Current Version | Previous Version | Text Only | Print | Product List | Glossary Off
Versions: 1 2 3 4 5 6 7 8 9 10 11 12 13 14 15 16 17 18 19 20 21 22 23 24 25 26 27 28 29 30 31 32 33 34 35 36 37 38 39 40 41 42 43 44 45 46 47 48 49 50

132
ASUS43 KMPX 251901
RWRMN
WEATHER ROUNDUP FOR MINNESOTA
NATIONAL WEATHER SERVICE TWIN CITIES/CHANHASSEN MN
200 PM CDT MON JUL 25 2016


NOTE: "FAIR" INDICATES FEW OR NO CLOUDS BELOW 12,000 FEET WITH NO
SIGNIFICANT WEATHER AND/OR OBSTRUCTIONS TO VISIBILITY. N/A MEANS
CURRENT SKY AND/OR WEATHER CONDITIONS ARE NOT AVAILABLE.

MNZ060>063-068>070-252000-
   Twin Cities Metro

CITY           SKY/WX    TMP DP  RH WIND       PRES   REMARKS
TWIN CITIES    SUNNY     86  60  41 NW12      30.05F
ST PAUL        SUNNY     84  60  44 NW10      30.05S
CRYSTAL        SUNNY     84  57  39 NW6       30.04F
BLAINE         SUNNY     84  59  42 W10G18    30.05S
LAKEVILLE      SUNNY     81  63  54 W7        30.07S
EDEN PRAIRIE   SUNNY     85  61  44 W9        30.06S
LAKEVILLE      SUNNY     81  63  54 W7        30.07S
SOUTH ST PAUL  SUNNY     84  57  40 W8        30.05F
LAKE ELMO      FAIR      82  61  47 W6        30.06F
$$
MNZ001>005-007-008-013>017-022>024-027-028-252000-
   Northwest Minnesota

CITY           SKY/WX    TMP DP  RH WIND       PRES   REMARKS
HALLOCK        SUNNY     81  64  57 CALM      29.97F
ROSEAU         SUNNY     81  64  57 W7        29.99S
WARROAD        SUNNY     79  66  65 SW8       29.98F
THIEF RVR FALL SUNNY     79  62  56 SW7       30.01F
CROOKSTON      SUNNY     82  63  51 SW9       30.00S
FOSSTON        SUNNY     81  63  54 SW6       30.03F
DETROIT LAKES  SUNNY     81  59  47 SW9       30.06S
MOORHEAD       SUNNY     84  63  48 S9G16     30.01F
PARK RAPIDS    SUNNY     83  60  45 VRB6      30.04F
MAHNOMEN       FAIR      81  62  50 SW7       30.03S
$$
MNZ006-009>011-018-025>026-252000-
   North Central Minnesota

CITY           SKY/WX    TMP DP  RH WIND       PRES   REMARKS
BAUDETTE       SUNNY     81  59  47 NW10      29.98F
FLAG ISLAND    MOSUNNY   77  59  53 NW10      29.95F
INTL FALLS     MOSUNNY   80  60  50 W9        29.98F
WASKISH        SUNNY     79  64  61 SW10      30.01S
BIG FORK       SUNNY     81  57  44 SW10      30.01S
LONGVILLE      SUNNY     81  63  54 W10       30.04F
GRAND RAPIDS   SUNNY     80  60  50 W10G16    30.04F
ORR            MOSUNNY   79  57  47 NW7       29.98S
COOK           MOSUNNY   79  59  50 W9        30.01S
WALKER         FAIR      80  61  51 W6        30.03F
$$
MNZ012-019>021-037-252000-
   Northeast Minnesota

CITY           SKY/WX    TMP DP  RH WIND       PRES   REMARKS
DULUTH         MOSUNNY   80  60  50 NW14G21   30.02S
ELY            MOSUNNY   77  55  47 W10G22    30.00S
HIBBING        MOSUNNY   78  59  51 NW13      30.02S
EVELETH        SUNNY     78  56  47 W14       30.03S
DULUTH HARBOR  SUNNY     82  61  47 W9        29.99F
TWO HARBORS    SUNNY     82  64  54 W6        29.98S
SILVER BAY     SUNNY     82  57  42 W6        29.96F
GRAND MARAIS     N/A     66  51  58 SW7       29.92S
G MARAIS ARPRT MOSUNNY   75  54  46 W7G16     29.99S
$$
MNZ029>031-032-039>041-046>048-054>057-064-252000-
   West Central Minnesota

CITY           SKY/WX    TMP DP  RH WIND       PRES   REMARKS
FERGUS FALLS   SUNNY     82  64  54 MISG      30.05F
WHEATON        SUNNY     88  70  55 S9        30.05F HX  92
MORRIS         SUNNY     86  63  45 SW9       30.06S
ALEXANDRIA     SUNNY     82  60  47 W9        30.09F
ELBOW LAKE     FAIR      82  66  60 SW8       30.06F
WADENA         SUNNY     81  63  54 W5        30.05F
GLENWOOD       SUNNY     82  63  51 W8        30.09S
APPLETON       SUNNY     84  61  45 SW8       30.06F
BENSON         SUNNY     84  59  42 W5        30.07F
ORTONVILLE     SUNNY     88  59  37 S5        30.05F
MADISON        SUNNY     84  61  45 SW10      30.07F
WILLMAR        FAIR      82  64  54 SW5       30.09F
$$
MNZ033>034-036-042>043-049>051-058-059-252000-
   Central Minnesota

CITY           SKY/WX    TMP DP  RH WIND       PRES   REMARKS
ST CLOUD       SUNNY     83  63  50 NW7       30.06S
SAUK CENTRE    FAIR      82  64  53 W7        30.08S
PAYNESVILLE    SUNNY     82  62  51 SW6       30.08F
AITKIN         SUNNY     82  55  39 NW7       30.03F
PINE RIVER     SUNNY     81  63  54 SW3       30.07F
BRAINERD       SUNNY     81  60  48 W10       30.05F
STAPLES        SUNNY     82  57  42 W12       30.05F
LONG PRAIRIE   FAIR      81  61  50 SW7       30.07F
LITTLE FALLS   SUNNY     81  57  44 NW7       30.06S
LITCHFIELD     SUNNY     82  63  51 NW7       30.08F
BUFFALO        SUNNY     82  59  45 W5        30.08S
MAPLE LAKE     SUNNY     83  64  53 NW5       30.08S
HUTCHINSON     SUNNY     82  67  60 W6        30.10S
$$
MNZ037-044-045-052-053-252000-
   East Central Minnesota

CITY           SKY/WX    TMP DP  RH WIND       PRES   REMARKS
PRINCETON      SUNNY     84  61  45 W6        30.06S
MORA           SUNNY     79  59  50 NW7       30.06S
CAMBRIDGE      SUNNY     84  64  51 W8        30.04R
RUSH CITY      SUNNY     81  61  50 NW6       30.05S
MOOSE LAKE     SUNNY     81  59  47 NW8       30.01F
HINCKLEY       FAIR      81  64  57 W9        30.04F
CLOQUET        SUNNY     81  55  41 W9        30.02F
MCGREGOR       SUNNY     81  61  50 W12       30.04S
$$
MNZ071>073-080-081-089-090-097-098-252000-
   Southwest Minnesota

CITY           SKY/WX    TMP DP  RH WIND       PRES   REMARKS
MONTEVIDEO     SUNNY     84  66  54 W6        30.09F
GRANITE FALLS  SUNNY     84  65  53 S6        30.10S
CANBY          SUNNY     86  60  41 SW8       30.09F
MARSHALL       SUNNY     84  61  45 SW8       30.10S
REDWOOD FALLS  SUNNY     84  59  42 W12       30.09S
OLIVIA         SUNNY     81  61  50 W3        30.09S
PIPESTONE      SUNNY     82  63  51 SW7       30.13F
WINDOM         SUNNY     82  61  47 SW6       30.12S
WORTHINGTON    SUNNY     82  63  52 SW6       30.13F
JACKSON        SUNNY     82  59  44 W6        30.13S
SLAYTON        SUNNY     83  59  44 SW6       30.13F
$$
MNZ065>067-074>077-082>085-091>093-252000-
   South Central Minnesota

CITY           SKY/WX    TMP DP  RH WIND       PRES   REMARKS
MANKATO        SUNNY     81  61  50 NW10      30.09S
NEW ULM        SUNNY     82  61  47 NW5       30.09S
ST JAMES       SUNNY     79  57  47 CALM      30.11S
FAIRMONT       SUNNY     82  61  47 W3        30.10
GLENCOE        SUNNY     83  65  54 NW6       30.08S
FARIBAULT      SUNNY     82  63  51 SW5       30.09S
OWATONNA       SUNNY     81  61  50 W5        30.09S
WASECA         SUNNY     79  63  57 W6        30.11S
ALBERT LEA     SUNNY     81  63  54 NW3       30.09F
$$
MNZ078>079-086>088-094>096-252000-
   Southeast Minnesota

CITY           SKY/WX    TMP DP  RH WIND       PRES   REMARKS
ROCHESTER      SUNNY     81  64  56 NW8       30.09F
RED WING       SUNNY     84  57  39 W5        30.04S
STANTON        SUNNY     81  61  50 CALM      30.07S
DODGE CENTER   SUNNY     82  61  47 W9        30.10S
WINONA         SUNNY     82  59  44 N7        30.05F
AUSTIN         SUNNY     81  61  50 N10       30.09S
PRESTON        SUNNY     79  61  54 NW8       30.09S
$$
ABBREVIATIONS USED IN REMARKS
   TC - TEMPERATURES IN CELSIUS
  WCI - WIND CHILL INDEX
   HX - HEAT INDEX
  VSB - VISIBILITY
$$




USA.gov is the U.S. government's official web portal to all federal, state and local government web resources and services.